Hourly Weather Luganka

Today, 18 May, Tuesday

Time Temperature Precipitation Wind Pressure Humidity
00:00 +17°C° 0 mm 3 mps 741 mmHg 86%
01:00 +17°C° 0 mm 2 mps 741 mmHg 87%
02:00 +17°C° 0 mm 2 mps 741 mmHg 88%
03:00 +17°C° 0 mm 2 mps 741 mmHg 86%
04:00 +17°C° 0 mm 3 mps 740 mmHg 85%
05:00 +17°C° 0 mm 3 mps 740 mmHg 84%
06:00 +18°C° 0 mm 4 mps 740 mmHg 76%
07:00 +20°C° 0 mm 5 mps 740 mmHg 68%
08:00 +22°C° 0 mm 6 mps 740 mmHg 62%
09:00 +23°C° 0 mm 6 mps 740 mmHg 58%
10:00 +23°C° 0 mm 6 mps 740 mmHg 55%
11:00 +24°C° 0 mm 6 mps 740 mmHg 51%
12:00 +24°C° 0 mm 6 mps 740 mmHg 53%
13:00 +26°C° 0 mm 6 mps 739 mmHg 54%
14:00 +26°C° 0 mm 6 mps 739 mmHg 56%
15:00 +23°C° 0.1 mm 5 mps 739 mmHg 64%
16:00 +22°C° 0.1 mm 5 mps 739 mmHg 73%
17:00 +20°C° 0.1 mm 5 mps 739 mmHg 81%
18:00 +19°C° 0.4 mm 4 mps 739 mmHg 85%
19:00 +18°C° 0.4 mm 4 mps 740 mmHg 89%
20:00 +16°C° 0.4 mm 3 mps 740 mmHg 92%
21:00 +16°C° 0.1 mm 3 mps 740 mmHg 93%
22:00 +15°C° 0.1 mm 4 mps 740 mmHg 94%
23:00 +15°C° 0.1 mm 4 mps 740 mmHg 94%

Tomorrow, 19 May, Wednesday

Time Temperature Precipitation Wind Pressure Humidity
00:00 +14°C° 0.1 mm 4 mps 740 mmHg 95%
01:00 +14°C° 0.1 mm 4 mps 740 mmHg 95%
02:00 +14°C° 0.1 mm 4 mps 740 mmHg 96%
03:00 +14°C° 0.1 mm 4 mps 740 mmHg 96%
04:00 +14°C° 0.1 mm 4 mps 741 mmHg 95%
05:00 +13°C° 0.1 mm 4 mps 741 mmHg 95%
06:00 +15°C° 0 mm 4 mps 741 mmHg 89%
07:00 +17°C° 0 mm 4 mps 741 mmHg 83%
08:00 +17°C° 0 mm 5 mps 741 mmHg 77%
09:00 +19°C° 0.2 mm 5 mps 741 mmHg 75%
10:00 +19°C° 0.2 mm 5 mps 741 mmHg 72%
11:00 +20°C° 0.2 mm 5 mps 741 mmHg 69%
12:00 +20°C° 0.6 mm 5 mps 741 mmHg 70%
13:00 +20°C° 0.6 mm 4 mps 741 mmHg 70%
14:00 +20°C° 0.6 mm 4 mps 741 mmHg 71%
15:00 +19°C° 2.5 mm 4 mps 741 mmHg 79%
16:00 +17°C° 2.5 mm 4 mps 740 mmHg 86%
17:00 +16°C° 2.5 mm 3 mps 740 mmHg 94%
18:00 +16°C° 0.7 mm 3 mps 740 mmHg 94%
19:00 +14°C° 0.7 mm 3 mps 740 mmHg 95%
20:00 +15°C° 0.7 mm 2 mps 740 mmHg 95%
21:00 +13°C° 0.1 mm 3 mps 739 mmHg 95%
22:00 +13°C° 0.1 mm 4 mps 739 mmHg 95%
23:00 +13°C° 0.1 mm 5 mps 738 mmHg 95%

Day after tomorrow, 20 May, Thursday

Time Temperature Precipitation Wind Pressure Humidity
00:00 +11°C° 0.3 mm 6 mps 738 mmHg 95%
01:00 +11°C° 0.3 mm 6 mps 738 mmHg 94%
02:00 +11°C° 0.3 mm 7 mps 738 mmHg 94%
03:00 +11°C° 0.2 mm 6 mps 738 mmHg 94%
04:00 +11°C° 0.2 mm 6 mps 739 mmHg 95%
05:00 +12°C° 0.2 mm 5 mps 739 mmHg 95%
06:00 +12°C° 0.8 mm 5 mps 739 mmHg 95%
07:00 +12°C° 0.8 mm 5 mps 739 mmHg 95%
08:00 +12°C° 0.8 mm 5 mps 739 mmHg 96%
09:00 +12°C° 0.4 mm 5 mps 740 mmHg 94%
10:00 +13°C° 0.4 mm 5 mps 740 mmHg 93%
11:00 +13°C° 0.4 mm 4 mps 741 mmHg 92%
12:00 +14°C° 0.4 mm 5 mps 741 mmHg 88%
13:00 +15°C° 0.4 mm 5 mps 741 mmHg 85%
14:00 +16°C° 0.4 mm 6 mps 742 mmHg 82%
15:00 +15°C° 0.2 mm 6 mps 742 mmHg 84%
16:00 +15°C° 0.2 mm 5 mps 742 mmHg 86%
17:00 +14°C° 0.2 mm 5 mps 743 mmHg 88%
18:00 +13°C° 0 mm 4 mps 743 mmHg 90%
19:00 +13°C° 0 mm 4 mps 744 mmHg 92%
20:00 +12°C° 0 mm 4 mps 744 mmHg 94%
21:00 +12°C° 0 mm 3 mps 744 mmHg 94%
22:00 +12°C° 0 mm 3 mps 744 mmHg 94%
23:00 +12°C° 0 mm 3 mps 744 mmHg 94%

21 May, Friday

Time Temperature Precipitation Wind Pressure Humidity
00:00 +11°C° 0 mm 3 mps 745 mmHg 94%
01:00 +11°C° 0 mm 3 mps 745 mmHg 94%
02:00 +10°C° 0 mm 4 mps 745 mmHg 93%
03:00 +10°C° 0 mm 3 mps 746 mmHg 93%
04:00 +9°C° 0 mm 3 mps 746 mmHg 93%
05:00 +9°C° 0 mm 3 mps 746 mmHg 93%
06:00 +10°C° 0 mm 3 mps 747 mmHg 87%
07:00 +12°C° 0 mm 3 mps 747 mmHg 81%
08:00 +13°C° 0 mm 4 mps 747 mmHg 76%
09:00 +14°C° 0 mm 3 mps 747 mmHg 71%
10:00 +16°C° 0 mm 3 mps 747 mmHg 67%
11:00 +18°C° 0 mm 3 mps 747 mmHg 63%
12:00 +18°C° 0 mm 3 mps 747 mmHg 62%
13:00 +18°C° 0 mm 2 mps 747 mmHg 61%
14:00 +19°C° 0 mm 2 mps 747 mmHg 60%
15:00 +18°C° 0 mm 2 mps 748 mmHg 64%
16:00 +18°C° 0 mm 3 mps 748 mmHg 69%
17:00 +17°C° 0 mm 3 mps 748 mmHg 74%
18:00 +16°C° 0 mm 3 mps 748 mmHg 77%
19:00 +14°C° 0 mm 3 mps 748 mmHg 80%
20:00 +13°C° 0 mm 3 mps 749 mmHg 84%
21:00 +13°C° 0 mm 3 mps 749 mmHg 83%
22:00 +14°C° 0 mm 2 mps 749 mmHg 83%
23:00 +14°C° 0 mm 2 mps 749 mmHg 82%

22 May, Saturday

Time Temperature Precipitation Wind Pressure Humidity
00:00 +12°C° 0.3 mm 3 mps 748 mmHg 84%
01:00 +12°C° 0.3 mm 3 mps 748 mmHg 86%
02:00 +12°C° 0.3 mm 3 mps 748 mmHg 88%
03:00 +12°C° 1.2 mm 4 mps 748 mmHg 91%
04:00 +12°C° 1.2 mm 4 mps 748 mmHg 93%
05:00 +12°C° 1.2 mm 4 mps 748 mmHg 96%
06:00 +12°C° 0.3 mm 5 mps 748 mmHg 95%
07:00 +12°C° 0.3 mm 5 mps 748 mmHg 94%
08:00 +13°C° 0.3 mm 6 mps 748 mmHg 93%
09:00 +13°C° 0.1 mm 6 mps 748 mmHg 92%
10:00 +14°C° 0.1 mm 7 mps 748 mmHg 90%
11:00 +14°C° 0.1 mm 7 mps 748 mmHg 89%
12:00 +15°C° 0 mm 7 mps 748 mmHg 85%
13:00 +16°C° 0 mm 8 mps 747 mmHg 82%
14:00 +17°C° 0 mm 8 mps 747 mmHg 79%
15:00 +17°C° 0 mm 7 mps 747 mmHg 81%
16:00 +16°C° 0 mm 7 mps 747 mmHg 83%
17:00 +16°C° 0 mm 6 mps 747 mmHg 86%
18:00 +15°C° 0 mm 6 mps 747 mmHg 88%
19:00 +14°C° 0 mm 5 mps 746 mmHg 90%
20:00 +13°C° 0 mm 5 mps 746 mmHg 92%
21:00 +13°C° 0 mm 5 mps 746 mmHg 94%
22:00 +13°C° 0 mm 4 mps 746 mmHg 95%
23:00 +12°C° 0 mm 4 mps 746 mmHg 97%

23 May, Sunday

Time Temperature Precipitation Wind Pressure Humidity
00:00 +12°C° 0 mm 4 mps 746 mmHg 97%
01:00 +12°C° 0 mm 3 mps 745 mmHg 97%
02:00 +12°C° 0 mm 3 mps 745 mmHg 98%
03:00 +13°C° 0 mm 2 mps 745 mmHg 97%
04:00 +14°C° 0 mm 2 mps 745 mmHg 96%
05:00 +14°C° 0 mm 1 mps 744 mmHg 96%
06:00 +16°C° 0 mm 1 mps 744 mmHg 91%
07:00 +19°C° 0 mm 1 mps 745 mmHg 86%
08:00 +18°C° 0 mm 0 mps 745 mmHg 81%
09:00 +22°C° 0 mm 1 mps 744 mmHg 78%
10:00 +23°C° 0 mm 1 mps 744 mmHg 75%
11:00 +25°C° 0 mm 2 mps 744 mmHg 71%
12:00 +25°C° 0 mm 2 mps 744 mmHg 69%
13:00 +26°C° 0 mm 3 mps 744 mmHg 68%
14:00 +27°C° 0 mm 3 mps 744 mmHg 66%
15:00 +26°C° 0 mm 3 mps 744 mmHg 68%
16:00 +26°C° 0 mm 3 mps 744 mmHg 71%
17:00 +26°C° 0 mm 2 mps 744 mmHg 74%
18:00 +24°C° 0.1 mm 2 mps 744 mmHg 79%
19:00 +21°C° 0.1 mm 2 mps 744 mmHg 84%
20:00 +19°C° 0.1 mm 2 mps 744 mmHg 89%
21:00 +18°C° 0 mm 2 mps 744 mmHg 90%
22:00 +18°C° 0 mm 2 mps 744 mmHg 91%
23:00 +17°C° 0 mm 2 mps 744 mmHg 92%
Show more

We Need Your Consent

Meteoprog and our Service Providers may store and access personal data such as cookies, device identifiers or other similar technologies on your device and process such data to personalise content and ads, as well as provide social media features and to analyse the traffic.

  • Store and/or access information on your device

    Cookies, device identifiers or other information can be stored or accessed on your device for the purposes indicated above.

  • Personalised ads and content, ad and content measurement, audience insights, and products development

    Ads and content can be personalised based on a profile. More data can be added to better personalise ads and content. Ad and content performance can be measured. Insights about the audience who saw the ads and content can be derived. Such data can be used to develop or improve user’s experience, systems and software.

By clicking ‘I Agree’ you will allow the use of indicated cookies, device identifiers, web beacons or other similar technologies. Your settings can be changed in the browser on your device.

For certain purposes, legitimate interests may be relied on, rather than consent. You can read more about this in our Privacy and Cookie Policy.